Wind_Speed
19 19 19 19 19 19 19 19 20 21 21 22 22 23 23 24 24 24 24 24 24 24 24 24 24 24 23 23 23 23 23 23 23 23 23 23 23 22
19 19 20 20 20 21 20 21 21 22 22 22 23 23 24 25 25 25 25 25 26 26 26 25 25 24 24 24 24 23 24 24 24 24 24 23 24 24
21 21 21 21 21 22 22 22 23 23 23 23 24 24 24 24 24 25 26 26 26 26 26 26 26 25 24 24 24 24 24 25 25 25 25 25 25 25
22 22 22 22 22 23 23 24 24 24 24 24 24 24 24 25 25 25 26 26 26 26 25 26 26 26 26 26 26 25 25 25 25 26 26 26 26 26
23 23 23 23 23 24 24 25 25 25 25 25 24 25 25 26 25 25 25 25 25 25 25 26 26 26 26 26 26 26 26 26 26 26 26 26 26 26
24 24 24 25 25 25 25 26 26 26 26 25 25 25 26 26 26 25 25 25 25 25 25 26 26 26 26 26 27 27 27 27 27 27 27 27 27 27
25 25 25 26 26 26 26 27 27 27 27 27 26 25 25 26 26 25 25 25 24 24 24 24 24 25 25 26 26 27 28 28 27 27 27 28 28 28
25 25 25 26 26 26 27 27 27 27 28 27 27 26 26 25 25 25 25 25 24 25 24 24 24 24 25 25 25 26 27 27 28 28 28 27 28 28
25 25 25 26 26 26 27 27 28 28 28 27 27 26 26 25 25 25 25 24 24 24 24 24 24 25 26 25 25 26 26 26 27 27 27 27 27 28
25 26 26 27 27 27 27 27 27 27 26 26 26 26 26 25 24 25 25 24 24 24 25 24 24 25 25 25 25 26 26 26 26 26 27 27 27 27
26 26 27 27 27 27 27 26 25 25 26 26 27 27 27 26 26 26 26 25 24 24 24 25 25 25 25 25 25 25 25 25 25 25 26 26 26 27
27 27 27 27 27 27 27 26 25 25 26 26 27 28 27 27 27 27 26 26 26 25 25 25 25 25 24 24 24 24 24 24 24 24 25 25 26 26
28 28 28 28 28 28 27 27 26 26 26 27 28 28 28 28 28 28 27 26 26 26 25 25 24 24 24 24 24 24 23 23 23 24 25 25 25 26
28 29 29 29 29 28 28 27 27 26 26 27 27 27 28 28 28 28 27 26 26 25 25 25 25 25 24 24 23 23 22 22 23 24 24 25 25 25
29 29 29 29 28 28 28 27 27 27 26 26 26 27 27 28 28 28 28 27 26 25 25 25 25 25 25 24 24 23 23 23 24 24 24 24 25 25
28 29 29 29 28 27 27 27 27 27 26 26 26 26 26 26 26 27 27 26 25 25 25 25 25 25 25 24 24 24 24 24 24 25 24 24 24 24
28 28 28 27 26 26 26 26 26 26 26 25 25 24 23 24 24 23 23 23 23 22 23 24 24 25 25 24 24 24 24 25 25 26 25 24 25 25
28 27 26 25 24 24 25 25 25 25 24 24 24 23 23 23 22 21 21 21 22 22 22 22 22 23 24 24 25 24 25 25 26 26 26 26 26 26
27 26 26 25 24 25 25 25 25 24 24 23 23 22 21 21 21 20 21 20 21 21 21 22 22 23 24 24 24 24 24 25 26 26 26 26 26 26
27 26 26 25 24 24 24 24 25 26 25 24 22 22 21 21 20 20 21 20 20 20 21 22 22 23 24 24 24 24 25 26 26 26 26 26 27 27
27 26 26 26 25 25 25 25 25 25 25 24 22 22 21 21 21 21 21 21 20 20 21 21 22 23 24 25 25 25 26 27 27 27 27 27 28 29
26 26 26 26 26 26 25 24 23 23 23 23 23 22 22 22 22 22 22 22 21 21 22 22 23 23 24 25 25 26 26 27 27 28 29 29 29 29
26 26 26 26 26 26 25 25 24 23 23 23 24 24 24 24 24 24 23 23 23 23 23 23 24 25 24 24 25 25 25 26 27 28 28 29 30 30
Wind_Direction
283 283 283 283 283 283 282 280 278 278 277 276 276 276 276 276 275 275 275 274 274 272 271 270 268 266 264 264 263 263 264 264 264 262 261 260 259 260
285 284 283 283 282 283 284 283 282 280 280 279 278 278 279 278 276 275 274 274 273 272 271 270 268 267 264 264 264 263 263 263 262 261 261 260 258 259
284 284 283 283 282 282 283 283 283 282 281 280 280 280 280 279 278 276 276 275 275 274 271 270 268 266 264 263 263 263 263 263 262 261 260 259 258 258
283 283 283 282 282 282 282 283 284 284 282 280 280 279 279 280 279 278 277 276 275 274 271 270 268 266 264 263 263 263 264 263 262 262 260 259 258 257
282 282 282 281 281 282 282 282 283 284 283 281 279 278 277 279 279 278 277 276 275 273 271 270 269 266 264 263 262 263 264 263 261 261 259 258 258 257
281 281 282 281 281 281 281 282 282 282 282 281 279 278 277 278 277 277 277 275 274 273 271 270 268 265 263 262 262 262 262 262 261 260 259 258 257 257
281 280 280 280 281 281 281 281 281 282 281 280 278 279 278 278 276 276 275 273 273 273 273 270 267 266 266 264 263 263 262 261 260 260 259 259 259 258
280 280 280 281 281 282 282 282 282 281 281 280 278 278 278 278 277 276 274 273 273 273 272 270 268 268 268 267 265 264 263 261 260 259 259 259 259 257
279 280 279 280 282 283 284 283 282 281 281 279 278 276 276 276 276 275 274 274 272 271 270 270 269 268 268 267 266 265 263 263 262 261 260 258 258 257
279 279 280 281 282 284 285 284 283 281 279 278 277 276 276 275 274 273 273 273 272 271 270 271 270 269 268 267 267 266 265 264 263 262 261 259 258 258
278 279 280 281 283 284 285 283 281 280 279 278 277 276 275 275 276 274 271 272 271 271 271 270 269 267 265 266 266 266 265 264 264 263 262 261 260 260
277 278 281 283 284 285 284 282 280 280 280 279 277 274 274 275 274 273 271 271 270 270 271 271 268 266 264 264 265 266 266 265 265 265 264 263 261 261
277 279 281 283 284 283 282 282 280 281 282 281 279 277 275 275 273 271 270 270 269 269 270 269 267 265 264 264 265 265 265 265 265 265 266 265 262 261
278 279 281 283 283 281 280 281 281 282 283 282 281 279 277 274 273 270 270 268 268 268 268 266 264 264 263 263 263 264 266 266 265 266 265 264 263 262
278 279 280 282 281 281 280 280 282 284 285 283 282 280 278 276 274 271 267 265 265 266 265 264 264 262 262 262 262 264 265 266 266 266 264 264 262 262
279 279 280 280 280 280 280 280 282 284 285 284 283 282 280 278 275 272 268 264 262 263 263 262 262 261 262 264 265 265 264 265 265 265 264 264 263 261
279 279 280 280 278 278 279 280 283 285 285 285 284 283 280 278 276 271 266 263 260 259 261 261 261 262 262 265 267 267 265 265 265 263 261 261 261 260
276 276 278 278 278 278 279 281 283 284 284 285 284 282 280 277 274 268 265 263 260 259 261 262 262 265 267 268 269 268 265 266 266 265 262 260 259 259
273 273 274 276 278 278 279 281 283 284 286 285 285 282 280 278 274 268 264 260 259 262 263 263 264 268 271 271 271 270 267 267 266 265 262 261 259 258
271 272 272 274 276 279 280 282 283 282 283 283 282 279 277 275 272 267 263 261 263 266 266 265 268 271 273 274 273 269 268 268 266 264 263 262 259 258
271 270 270 271 275 278 281 283 285 284 283 282 280 279 276 273 270 267 265 264 265 267 267 267 271 274 275 275 273 271 269 267 267 265 264 263 260 258
271 270 270 272 274 276 280 281 284 284 284 283 281 279 277 273 269 266 266 264 264 268 268 269 271 275 277 276 273 272 270 268 268 267 266 265 264 261
271 270 270 271 272 274 277 278 280 281 282 281 280 280 278 274 271 269 267 265 265 267 269 270 271 274 277 278 277 274 271 270 269 268 267 266 264 263
Height
5778 5777 5776 5775 5774 5773 5772 5771 5771 5770 5770 5768 5767 5765 5764 5764 5763 5762 5761 5761 5760 5759 5759 5759 5759 5760 5760 5761 5762 5762 5763 5764 5765 5766 5767 5768 5769 5770
5772 5771 5770 5769 5768 5767 5766 5765 5764 5763 5762 5761 5760 5758 5757 5756 5755 5754 5753 5753 5752 5752 5752 5751 5752 5752 5753 5753 5754 5755 5756 5757 5758 5759 5760 5761 5762 5763
5766 5765 5764 5763 5762 5760 5759 5758 5757 5756 5755 5754 5752 5751 5750 5748 5747 5747 5746 5745 5745 5744 5744 5744 5744 5745 5745 5746 5747 5748 5749 5750 5751 5752 5753 5754 5755 5756
5759 5758 5757 5756 5755 5753 5752 5751 5750 5748 5747 5746 5745 5743 5742 5741 5740 5739 5738 5737 5736 5736 5736 5736 5736 5737 5737 5738 5739 5740 5741 5742 5743 5744 5745 5746 5748 5749
5752 5751 5750 5748 5747 5746 5745 5743 5742 5741 5739 5738 5737 5735 5734 5733 5732 5731 5730 5729 5728 5728 5728 5727 5728 5729 5729 5730 5731 5732 5733 5734 5735 5736 5737 5738 5739 5741
5744 5743 5742 5741 5739 5738 5737 5735 5734 5733 5731 5730 5729 5728 5726 5725 5724 5723 5722 5721 5720 5720 5720 5720 5720 5720 5721 5722 5723 5724 5724 5725 5726 5727 5728 5730 5731 5732
5736 5735 5734 5732 5731 5729 5728 5727 5725 5724 5723 5721 5720 5719 5718 5716 5716 5715 5714 5713 5713 5712 5712 5712 5712 5712 5713 5713 5714 5715 5716 5717 5718 5719 5720 5721 5722 5723
5728 5727 5725 5724 5723 5721 5719 5718 5716 5715 5714 5712 5711 5710 5709 5708 5707 5706 5706 5705 5705 5705 5704 5704 5704 5704 5705 5705 5706 5706 5707 5708 5709 5710 5711 5712 5713 5714
5720 5719 5717 5716 5714 5712 5711 5709 5707 5705 5704 5703 5702 5701 5700 5700 5699 5699 5698 5697 5697 5696 5696 5696 5696 5697 5697 5697 5697 5698 5698 5699 5700 5701 5702 5703 5704 5705
5712 5711 5709 5708 5706 5704 5702 5700 5698 5697 5695 5694 5693 5693 5692 5691 5691 5691 5690 5690 5689 5688 5688 5689 5688 5689 5689 5689 5689 5690 5690 5691 5692 5692 5693 5694 5695 5696
5704 5703 5701 5699 5698 5696 5694 5692 5690 5688 5687 5685 5684 5683 5683 5682 5682 5682 5681 5681 5681 5680 5680 5680 5680 5681 5681 5681 5681 5682 5682 5683 5683 5684 5684 5685 5686 5687
5696 5695 5693 5691 5689 5687 5685 5683 5682 5680 5679 5677 5675 5674 5673 5673 5672 5672 5672 5672 5672 5672 5671 5672 5672 5672 5673 5673 5673 5674 5674 5675 5675 5675 5676 5676 5677 5678
5688 5686 5684 5682 5680 5678 5677 5675 5673 5672 5670 5668 5666 5665 5664 5663 5662 5662 5662 5663 5663 5664 5663 5663 5663 5663 5664 5665 5666 5666 5666 5667 5667 5667 5668 5668 5668 5669
5679 5678 5676 5674 5672 5670 5668 5666 5664 5663 5661 5659 5657 5655 5654 5653 5653 5652 5652 5653 5654 5654 5654 5654 5655 5655 5656 5657 5658 5658 5658 5659 5659 5659 5660 5660 5660 5661
5670 5669 5667 5665 5663 5661 5660 5658 5655 5653 5651 5649 5647 5646 5645 5643 5643 5642 5642 5643 5644 5645 5645 5645 5646 5647 5648 5648 5649 5650 5651 5651 5651 5651 5652 5652 5652 5653
5661 5660 5658 5656 5655 5653 5651 5649 5647 5645 5643 5641 5638 5637 5635 5634 5633 5633 5633 5634 5635 5636 5636 5637 5638 5638 5639 5640 5640 5641 5641 5642 5643 5643 5643 5644 5644 5645
5653 5651 5650 5648 5647 5645 5643 5641 5639 5637 5635 5632 5630 5628 5626 5625 5624 5624 5624 5625 5627 5628 5629 5629 5630 5630 5631 5631 5632 5632 5632 5633 5634 5634 5635 5636 5637 5637
5645 5643 5642 5641 5639 5638 5636 5634 5632 5630 5627 5625 5623 5621 5619 5618 5617 5617 5617 5618 5619 5620 5621 5622 5622 5623 5623 5623 5623 5623 5624 5624 5625 5625 5626 5627 5628 5629
5636 5635 5634 5633 5632 5630 5628 5626 5624 5622 5619 5617 5615 5614 5612 5611 5611 5610 5611 5611 5612 5614 5615 5615 5615 5616 5616 5616 5616 5615 5615 5616 5616 5616 5617 5619 5620 5621
5628 5627 5626 5625 5624 5623 5621 5619 5616 5614 5612 5610 5608 5607 5606 5605 5605 5604 5605 5605 5606 5607 5608 5608 5608 5609 5609 5609 5608 5607 5606 5607 5607 5608 5609 5610 5611 5611
5620 5619 5618 5617 5616 5615 5613 5611 5609 5607 5605 5603 5602 5601 5600 5599 5599 5598 5599 5599 5600 5601 5601 5602 5601 5601 5600 5600 5600 5599 5598 5598 5598 5599 5600 5600 5601 5602
5611 5610 5610 5609 5608 5607 5605 5604 5602 5600 5598 5597 5595 5594 5593 5593 5592 5592 5592 5593 5593 5594 5594 5595 5594 5593 5593 5592 5591 5591 5590 5590 5589 5589 5590 5591 5591 5593
5603 5602 5601 5600 5600 5598 5597 5596 5595 5593 5592 5590 5589 5588 5587 5586 5586 5585 5585 5586 5586 5587 5587 5587 5587 5586 5585 5584 5583 5582 5581 5581 5581 5581 5581 5581 5582 5583